Time,TemperatureF,DewpointF,PressureIn,WindDirection,WindDirectionDegrees,WindSpeedMPH,WindSpeedGustMPH,Humidity,HourlyPrecipIn,Conditions,Clouds,dailyrainin,SolarRadiationWatts/m^2,SoftwareType,DateUTC
2013-07-02 00:01:00,58.0,54.0,-100.00,SE,134,3.0,4.0,85,0.00,,,0.00,0.000000,,2013-07-02 07:01:00,
2013-07-02 00:11:00,58.0,54.0,-100.00,SE,134,3.0,4.0,85,0.00,,,0.00,0.000000,,2013-07-02 07:11:00,
2013-07-02 00:22:00,58.0,54.0,-100.00,SE,134,3.0,4.0,85,0.00,,,0.00,0.000000,,2013-07-02 07:22:00,
2013-07-02 00:53:00,57.0,54.0,-100.00,South,185,0.0,4.0,91,0.00,,,0.00,0.000000,,2013-07-02 07:53:00,
2013-07-02 01:02:00,57.0,54.0,-100.00,South,185,0.0,4.0,91,0.00,,,0.00,0.000000,,2013-07-02 08:02:00,
2013-07-02 01:12:00,57.0,54.0,-100.00,South,185,0.0,4.0,91,0.00,,,0.00,0.000000,,2013-07-02 08:12:00,
2013-07-02 01:22:00,57.0,54.0,-100.00,South,185,0.0,4.0,91,0.00,,,0.00,0.000000,,2013-07-02 08:22:00,
2013-07-02 01:53:00,58.0,53.0,-100.00,ENE,76,0.0,4.0,83,0.00,,,0.00,0.000000,,2013-07-02 08:53:00,
2013-07-02 02:01:00,58.0,53.0,-100.00,ENE,76,0.0,4.0,83,0.00,,,0.00,0.000000,,2013-07-02 09:01:00,
2013-07-02 02:11:00,58.0,53.0,-100.00,ENE,76,0.0,4.0,83,0.00,,,0.00,0.000000,,2013-07-02 09:11:00,
2013-07-02 02:22:00,58.0,53.0,-100.00,ENE,76,0.0,4.0,83,0.00,,,0.00,0.000000,,2013-07-02 09:22:00,
2013-07-02 02:52:00,58.0,54.0,-100.00,SSE,152,1.0,3.0,86,0.00,,,0.00,0.000000,,2013-07-02 09:52:00,
2013-07-02 03:01:00,58.0,54.0,-100.00,SSE,152,1.0,3.0,86,0.00,,,0.00,0.000000,,2013-07-02 10:01:00,
2013-07-02 03:11:00,58.0,54.0,-100.00,SSE,152,1.0,3.0,86,0.00,,,0.00,0.000000,,2013-07-02 10:11:00,
2013-07-02 03:22:00,58.0,54.0,-100.00,SSE,152,1.0,3.0,86,0.00,,,0.00,0.000000,,2013-07-02 10:22:00,
2013-07-02 03:52:00,58.0,52.0,-100.00,WNW,290,3.0,7.0,79,0.00,,,0.00,0.000000,,2013-07-02 10:52:00,
2013-07-02 04:01:00,58.0,52.0,-100.00,WNW,290,3.0,7.0,79,0.00,,,0.00,0.000000,,2013-07-02 11:01:00,
2013-07-02 04:11:00,58.0,52.0,-100.00,WNW,290,3.0,7.0,79,0.00,,,0.00,0.000000,,2013-07-02 11:11:00,
2013-07-02 04:22:00,58.0,52.0,-100.00,WNW,290,3.0,7.0,79,0.00,,,0.00,0.000000,,2013-07-02 11:22:00,
2013-07-02 04:52:00,56.0,50.0,-100.00,SE,139,1.0,4.0,79,0.00,,,0.00,0.000000,,2013-07-02 11:52:00,
2013-07-02 05:01:00,56.0,50.0,-100.00,SE,139,1.0,4.0,79,0.00,,,0.00,0.000000,,2013-07-02 12:01:00,
2013-07-02 05:11:00,56.0,50.0,-100.00,SE,139,1.0,4.0,79,0.00,,,0.00,0.000000,,2013-07-02 12:11:00,
2013-07-02 05:23:00,56.0,50.0,-100.00,SE,139,1.0,4.0,79,0.00,,,0.00,0.000000,,2013-07-02 12:23:00,
2013-07-02 05:52:00,56.0,44.0,-100.00,SW,224,2.0,4.0,65,0.00,,,0.00,0.000000,,2013-07-02 12:52:00,
2013-07-02 06:01:00,56.0,44.0,-100.00,SW,224,2.0,4.0,65,0.00,,,0.00,0.000000,,2013-07-02 13:01:00,
2013-07-02 06:11:00,56.0,44.0,-100.00,SW,224,2.0,4.0,65,0.00,,,0.00,0.000000,,2013-07-02 13:11:00,
2013-07-02 06:22:00,56.0,44.0,-100.00,SW,224,2.0,4.0,65,0.00,,,0.00,0.000000,,2013-07-02 13:22:00,
2013-07-02 06:52:00,57.0,50.0,-100.00,ESE,122,3.0,4.0,78,0.00,,,0.00,35.000000,,2013-07-02 13:52:00,
2013-07-02 07:01:00,57.0,50.0,-100.00,ESE,122,3.0,4.0,78,0.00,,,0.00,35.000000,,2013-07-02 14:01:00,
2013-07-02 07:11:00,57.0,50.0,-100.00,ESE,122,3.0,4.0,78,0.00,,,0.00,35.000000,,2013-07-02 14:11:00,
2013-07-02 07:22:00,57.0,50.0,-100.00,ESE,122,3.0,4.0,78,0.00,,,0.00,35.000000,,2013-07-02 14:22:00,
2013-07-02 07:53:00,63.0,49.0,-100.00,SE,132,2.0,5.0,60,0.00,,,0.00,174.000000,,2013-07-02 14:53:00,
2013-07-02 08:02:00,63.0,49.0,-100.00,SE,132,2.0,5.0,60,0.00,,,0.00,174.000000,,2013-07-02 15:02:00,
2013-07-02 08:11:00,63.0,49.0,-100.00,SE,132,2.0,5.0,60,0.00,,,0.00,174.000000,,2013-07-02 15:11:00,
2013-07-02 08:22:00,63.0,49.0,-100.00,SE,132,2.0,5.0,60,0.00,,,0.00,174.000000,,2013-07-02 15:22:00,
2013-07-02 08:53:00,66.0,52.0,-100.00,NNE,20,1.0,4.0,61,0.00,,,0.00,328.000000,,2013-07-02 15:53:00,
2013-07-02 09:01:00,66.0,52.0,-100.00,NNE,20,1.0,4.0,61,0.00,,,0.00,328.000000,,2013-07-02 16:01:00,
2013-07-02 09:11:00,66.0,52.0,-100.00,NNE,20,1.0,4.0,61,0.00,,,0.00,328.000000,,2013-07-02 16:11:00,
2013-07-02 09:52:00,67.0,46.0,-100.00,NNW,346,2.0,5.0,47,0.00,,,0.00,490.000000,,2013-07-02 16:52:00,
2013-07-02 10:02:00,67.0,46.0,-100.00,NNW,346,2.0,5.0,47,0.00,,,0.00,490.000000,,2013-07-02 17:02:00,
2013-07-02 10:11:00,67.0,46.0,-100.00,NNW,346,2.0,5.0,47,0.00,,,0.00,490.000000,,2013-07-02 17:11:00,
2013-07-02 10:22:00,67.0,46.0,-100.00,NNW,346,2.0,5.0,47,0.00,,,0.00,490.000000,,2013-07-02 17:22:00,
2013-07-02 11:02:00,68.0,48.0,-100.00,NW,311,4.0,8.0,49,0.00,,,0.00,637.000000,,2013-07-02 18:02:00,
2013-07-02 11:11:00,68.0,48.0,-100.00,NW,311,4.0,8.0,49,0.00,,,0.00,637.000000,,2013-07-02 18:11:00,
2013-07-02 11:22:00,68.0,48.0,-100.00,NW,311,4.0,8.0,49,0.00,,,0.00,637.000000,,2013-07-02 18:22:00,
2013-07-02 11:53:00,70.0,50.0,-100.00,NW,308,5.0,13.0,50,0.00,,,0.00,755.000000,,2013-07-02 18:53:00,
2013-07-02 12:01:00,70.0,50.0,-100.00,NW,308,5.0,13.0,50,0.00,,,0.00,755.000000,,2013-07-02 19:01:00,
2013-07-02 12:11:00,70.0,50.0,-100.00,NW,308,5.0,13.0,50,0.00,,,0.00,755.000000,,2013-07-02 19:11:00,
2013-07-02 12:22:00,70.0,50.0,-100.00,NW,308,5.0,13.0,50,0.00,,,0.00,755.000000,,2013-07-02 19:22:00,
2013-07-02 12:53:00,72.0,50.0,-100.00,NW,308,5.0,12.0,46,0.00,,,0.00,841.000000,,2013-07-02 19:53:00,
2013-07-02 13:02:00,72.0,50.0,-100.00,NW,308,5.0,12.0,46,0.00,,,0.00,841.000000,,2013-07-02 20:02:00,
2013-07-02 13:11:00,72.0,50.0,-100.00,NW,308,5.0,12.0,46,0.00,,,0.00,841.000000,,2013-07-02 20:11:00,
2013-07-02 13:22:00,72.0,50.0,-100.00,NW,308,5.0,12.0,46,0.00,,,0.00,841.000000,,2013-07-02 20:22:00,
2013-07-02 13:52:00,73.0,50.0,-100.00,NW,305,6.0,14.0,45,0.00,,,0.00,884.000000,,2013-07-02 20:52:00,
2013-07-02 14:02:00,73.0,50.0,-100.00,NW,305,6.0,14.0,45,0.00,,,0.00,884.000000,,2013-07-02 21:02:00,
2013-07-02 14:11:00,73.0,50.0,-100.00,NW,305,6.0,14.0,45,0.00,,,0.00,884.000000,,2013-07-02 21:11:00,
2013-07-02 14:22:00,73.0,50.0,-100.00,NW,305,6.0,14.0,45,0.00,,,0.00,884.000000,,2013-07-02 21:22:00,
2013-07-02 14:52:00,73.0,50.0,-100.00,WNW,301,6.0,16.0,45,0.00,,,0.00,884.000000,,2013-07-02 21:52:00,
2013-07-02 15:01:00,73.0,50.0,-100.00,WNW,301,6.0,16.0,45,0.00,,,0.00,884.000000,,2013-07-02 22:01:00,
2013-07-02 15:11:00,73.0,50.0,-100.00,WNW,301,6.0,16.0,45,0.00,,,0.00,884.000000,,2013-07-02 22:11:00,
2013-07-02 15:22:00,73.0,50.0,-100.00,WNW,301,6.0,16.0,45,0.00,,,0.00,884.000000,,2013-07-02 22:22:00,
2013-07-02 15:53:00,73.0,50.0,-100.00,WNW,292,7.0,14.0,45,0.00,,,0.00,844.000000,,2013-07-02 22:53:00,
2013-07-02 16:01:00,73.0,50.0,-100.00,WNW,292,7.0,14.0,45,0.00,,,0.00,844.000000,,2013-07-02 23:01:00,
2013-07-02 16:11:00,73.0,50.0,-100.00,WNW,292,7.0,14.0,45,0.00,,,0.00,844.000000,,2013-07-02 23:11:00,
2013-07-02 16:22:00,73.0,50.0,-100.00,WNW,292,7.0,14.0,45,0.00,,,0.00,844.000000,,2013-07-02 23:22:00,
2013-07-02 16:52:00,74.0,49.0,-100.00,WNW,299,6.0,15.0,42,0.00,,,0.00,757.000000,,2013-07-02 23:52:00,
2013-07-02 17:01:00,74.0,49.0,-100.00,WNW,299,6.0,15.0,42,0.00,,,0.00,757.000000,,2013-07-03 00:01:00,
2013-07-02 17:11:00,74.0,49.0,-100.00,WNW,299,6.0,15.0,42,0.00,,,0.00,757.000000,,2013-07-03 00:11:00,
2013-07-02 17:22:00,74.0,49.0,-100.00,WNW,299,6.0,15.0,42,0.00,,,0.00,757.000000,,2013-07-03 00:22:00,
2013-07-02 17:52:00,74.0,47.0,-100.00,WNW,286,6.0,16.0,39,0.00,,,0.00,636.000000,,2013-07-03 00:52:00,
2013-07-02 18:01:00,74.0,47.0,-100.00,WNW,286,6.0,16.0,39,0.00,,,0.00,636.000000,,2013-07-03 01:01:00,
2013-07-02 18:11:00,74.0,47.0,-100.00,WNW,286,6.0,16.0,39,0.00,,,0.00,636.000000,,2013-07-03 01:11:00,
2013-07-02 18:22:00,74.0,47.0,-100.00,WNW,286,6.0,16.0,39,0.00,,,0.00,636.000000,,2013-07-03 01:22:00,
2013-07-02 18:59:00,71.0,47.0,-100.00,West,268,10.0,18.0,42,0.00,,,0.00,488.000000,,2013-07-03 01:59:00,
2013-07-02 19:12:00,71.0,47.0,-100.00,West,268,10.0,18.0,42,0.00,,,0.00,488.000000,,2013-07-03 02:12:00,
2013-07-02 19:23:00,71.0,47.0,-100.00,West,268,10.0,18.0,42,0.00,,,0.00,488.000000,,2013-07-03 02:23:00,
2013-07-02 19:25:00,69.0,49.0,-100.00,West,269,9.0,15.0,49,0.00,,,0.00,329.000000,,2013-07-03 02:25:00,
2013-07-02 20:02:00,69.0,49.0,-100.00,West,269,9.0,15.0,49,0.00,,,0.00,329.000000,,2013-07-03 03:02:00,
2013-07-02 20:12:00,69.0,49.0,-100.00,West,269,9.0,15.0,49,0.00,,,0.00,329.000000,,2013-07-03 03:12:00,
2013-07-02 20:58:00,64.0,51.0,-100.00,NW,309,3.0,12.0,62,-99.99,,,0.00,173.000000,,2013-07-03 03:58:00,
2013-07-02 21:01:00,64.0,51.0,-100.00,NW,309,3.0,12.0,62,-99.99,,,0.00,173.000000,,2013-07-03 04:01:00,
2013-07-02 21:11:00,64.0,51.0,-100.00,NW,309,3.0,12.0,62,-99.99,,,0.00,173.000000,,2013-07-03 04:11:00,
2013-07-02 21:22:00,64.0,51.0,-100.00,NW,309,3.0,12.0,62,-99.99,,,0.00,173.000000,,2013-07-03 04:22:00,
2013-07-02 21:52:00,58.0,50.0,-100.00,WSW,250,2.0,5.0,74,0.00,,,0.00,39.000000,,2013-07-03 04:52:00,
2013-07-02 22:01:00,58.0,50.0,-100.00,WSW,250,2.0,5.0,74,0.00,,,0.00,39.000000,,2013-07-03 05:01:00,
2013-07-02 22:11:00,58.0,50.0,-100.00,WSW,250,2.0,5.0,74,0.00,,,0.00,39.000000,,2013-07-03 05:11:00,
2013-07-02 22:23:00,58.0,50.0,-100.00,WSW,250,2.0,5.0,74,0.00,,,0.00,39.000000,,2013-07-03 05:23:00,
2013-07-02 22:59:00,54.0,50.0,-100.00,North,4,1.0,2.0,87,0.00,,,0.00,0.000000,,2013-07-03 05:59:00,
2013-07-02 23:03:00,54.0,50.0,-100.00,North,4,1.0,2.0,87,0.00,,,0.00,0.000000,,2013-07-03 06:03:00,
2013-07-02 23:12:00,54.0,50.0,-100.00,North,4,1.0,2.0,87,0.00,,,0.00,0.000000,,2013-07-03 06:12:00,
2013-07-02 23:23:00,54.0,50.0,-100.00,North,4,1.0,2.0,87,0.00,,,0.00,0.000000,,2013-07-03 06:23:00,